Location: Newark
(21.8258°S, 114.1586°E)
Time: 19:45:03
(UTC+00:00)

Hubble Space Telescope - Pass Details

Date: 14 December 2019
Orbit: 536 x 540 km, 28.5° (Epoch: 28 January)

Event Time Altitude Azimuth Distance (km) Brightness Sun altitude
Rises 12:29:00 0° 251° (WSW) 2,684 5.7 -18.4°
Reaches altitude 10° 12:31:27 10° 241° (WSW) 1,793 4.7 -18.8°
Maximum altitude 12:35:12 32° 177° (S) 935 2.3 -19.5°
Enters shadow 12:37:25 19° 126° (SE) 1,301 2.5 -20.0°
